This is the latest recevied weather packets stored in our database for station/object SR9WXJ. If no packets are shown the sender has not sent any weather packets the latest 10 day(s).
| Time | Temp. | Humidity | Pressure | Rain* | Wind** | Luminosity | Snow |
|---|---|---|---|---|---|---|---|
| 1777740359 | 18.89° C | 100% | 792.2 hPa | - | - | - | - |
| 1777740048 | 19.44° C | 100% | 792.2 hPa | - | - | - | - |
| 1777739737 | 19.44° C | 100% | 792.2 hPa | - | - | - | - |
| 1777739437 | 19.44° C | 100% | 790.8 hPa | - | - | - | - |
| 1777739126 | 19.44° C | 100% | 790.8 hPa | - | - | - | - |
| 1777738816 | 19.44° C | 100% | 789.4 hPa | - | - | - | - |
| 1777738504 | 19.44° C | 100% | 789.4 hPa | - | - | - | - |
| 1777738194 | 19.44° C | 100% | 789.4 hPa | - | - | - | - |
| 1777737882 | 19.44° C | 100% | 789.4 hPa | - | - | - | - |
| 1777737270 | 19.44° C | 100% | 788.4 hPa | - | - | - | - |
| 1777736960 | 19.44° C | 100% | 788.4 hPa | - | - | - | - |
| 1777736648 | 20° C | 100% | 788.4 hPa | - | - | - | - |
| 1777736038 | 20° C | 100% | 788.2 hPa | - | - | - | - |
| 1777735727 | 20° C | 100% | 788.2 hPa | - | - | - | - |
| 1777735416 | 20° C | 100% | 788.2 hPa | - | - | - | - |
| 1777735105 | 20° C | 100% | 788.2 hPa | - | - | - | - |
| 1777734794 | 20° C | 100% | 788.2 hPa | - | - | - | - |
| 1777734495 | 19.44° C | 100% | 788.2 hPa | - | - | - | - |
| 1777734184 | 20° C | 100% | 788.2 hPa | - | - | - | - |
| 1777733873 | 20° C | 100% | 0 hPa | - | - | - | - |
| 1777733562 | 20.56° C | 100% | 0 hPa | - | - | - | - |
| 1777733251 | 19.44° C | 100% | 804.6 hPa | - | - | - | - |
| 1777732939 | 19.44° C | 100% | 804.6 hPa | - | - | - | - |
| 1777732639 | 20.56° C | 100% | 804.6 hPa | - | - | - | - |
| 1777732328 | 20° C | 100% | 804.6 hPa | - | - | - | - |
* Rain since midnight (hover to see other rain measurements)
** Current wind speed in m/s (hover to see current wind gust speed)